[[{"header":{"parameterUnit":"m.s-1","parameterCategory":1,"la1":30.2991,"la2":30.254,"lo1":-89.0895,"lo2":-89.0444,"dy":0.0017,"dx":0.0017,"nx":28,"ny":28,"refTime":"2024-05-11T09:00:00:Z","depth":0,"parameterNumber":2,"parameterNumberName":"U-component_of_WINDS"},"data":[0,0,0,0,0,0,0,0,0,0,0,0,0,0,0,0,0,0,0,0,0,0,0,0,0,0,0,0,0,0,0,0,0,0,0,0,0,0,0,0,0,0,0,0,0,0,0,0,0,0,0,0,0,0,0,0,0,0,-3.3353,-3.3353,0,-3.3413,-3.3414,-3.3415,-3.3392,-3.3391,-3.3389,-3.3388,-3.3449,-3.3452,-3.3455,0,0,0,0,0,0,0,0,0,0,0,0,0,-3.3216,-3.3219,-3.3353,-3.3353,-3.3354,-3.3413,-3.3414,-3.3415,-3.3392,-3.3391,-3.3389,-3.3387,-3.3448,-3.3452,-3.3455,0,0,0,0,0,0,0,0,0,0,0,0,0,-3.3276,-3.322,-3.3352,-3.335,-3.335,-3.3413,-3.3414,-3.3415,-3.3393,-3.3391,-3.3389,-3.3387,-3.3447,-3.3452,-3.3456,-3.3524,0,0,-3.3469,-3.3471,0,0,0,0,0,0,0,0,-3.3273,-3.3281,-3.335,-3.335,-3.3351,-3.3393,-3.3388,-3.3452,-3.3393,-3.3377,-3.3388,-3.3386,-3.3432,-3.3438,-3.3454,-3.3527,-3.353,-3.347,-3.3472,-3.3474,-3.3475,0,0,0,0,0,0,0,-3.3269,-3.3278,-3.3377,-3.3351,-3.3351,-3.3346,-3.3352,-3.34,-3.3415,-3.3378,-3.3376,-3.3384,-3.3432,-3.3449,-3.3455,-3.3531,-3.3469,-3.3473,-3.3476,-3.3478,-3.3662,-3.3664,0,0,0,0,0,0,-3.3264,-3.3275,-3.3375,-3.3378,-3.3306,-3.335,-3.3357,-3.3382,-3.3415,-3.3418,-3.3386,-3.3383,-3.3443,-3.345,-3.3457,-3.3538,-3.3474,-3.3478,-3.3481,-3.366,-3.3663,-3.3665,0,0,0,0,0,0,-3.3261,-3.3273,-3.3372,-3.3326,-3.3339,-3.3354,-3.3382,-3.3384,-3.3401,-3.3421,-3.3423,-3.3401,-3.3442,-3.3451,-3.3507,-3.354,-3.348,-3.3484,-3.3657,-3.3661,-3.3664,-3.3701,0,0,0,0,0,0,-3.3258,-3.3273,-3.3299,-3.3327,-3.3341,-3.3422,-3.3384,-3.3387,-3.3409,-3.3405,-3.3435,-3.3438,-3.3441,-3.3501,-3.3512,-3.3545,-3.3488,-3.3654,-3.3659,-3.3663,-3.3697,-3.3706,-3.3713,0,0,0,0,0,-3.3253,-3.3307,-3.33,-3.3312,-3.3374,-3.3424,-3.3432,-3.3434,-3.3412,-3.3438,-3.345,-3.3437,-3.3535,-3.3507,-3.3519,-3.3554,-3.3652,-3.3657,-3.3662,-3.3694,-3.3704,-3.3713,0,0,0,0,0,0,-3.3282,-3.3311,-3.3303,-3.3369,-3.3394,-3.342,-3.3453,-3.3445,-3.3477,-3.3472,-3.3474,-3.3481,-3.3539,-3.3552,-3.352,-3.3621,-3.359,-3.3598,-3.361,-3.362,-3.3628,-3.3622,-3.3491,0,0,0,0,0,-3.3296,-3.3334,-3.3357,-3.3412,-3.3426,-3.3437,-3.3459,-3.3459,-3.3485,-3.3495,-3.3512,-3.3538,-3.3574,-3.3598,-3.3633,-3.37,-3.3705,-3.373,-3.3737,-3.3744,-3.375,-3.3785,-3.3796,-3.3682,-3.3682,-3.3682,0,0,-3.3325,-3.3346,-3.337,-3.3419,-3.3438,-3.3477,-3.3447,-3.3489,-3.3518,-3.3502,-3.3556,-3.3569,-3.3598,-3.366,-3.3688,-3.3673,-3.3783,-3.375,-3.3755,-3.3758,-3.3792,-3.3802,-3.3812,-3.3685,-3.3685,-3.3684,0,0,-3.3398,-3.3418,-3.3465,-3.3486,-3.3516,-3.3524,-3.3535,-3.3563,-3.3571,-3.3625,-3.3614,-3.3648,-3.3711,-3.3732,-3.375,-3.3831,-3.382,-3.3843,-3.3883,-3.3917,-3.3926,-3.3934,-3.3961,-3.3971,-3.3849,-3.3849,-3.3849,0,-3.343,-3.3489,-3.3491,-3.3534,-3.3556,-3.3544,-3.3591,-3.3611,-3.3651,-3.3666,-3.3649,-3.3727,-3.3746,-3.3812,-3.3831,-3.3848,-3.386,-3.3838,-3.3925,-3.3933,-3.394,-3.3966,-3.3977,-3.3852,-3.3851,-3.3851,-3.3851,0,-3.3526,-3.3567,-3.3602,-3.3641,-3.3666,-3.3712,-3.372,-3.3746,-3.3744,-3.3753,-3.3808,-3.383,-3.3869,-3.3885,-3.3883,-3.395,-3.394,-3.3924,-3.3892,-3.3953,-3.3978,-3.3988,-3.3855,-3.3854,-3.3854,-3.3853,0,0,-3.3618,-3.3658,-3.367,-3.3687,-3.372,-3.3751,-3.3796,-3.3834,-3.3855,-3.3884,-3.392,-3.3974,-3.3959,-3.3981,-3.3981,-3.4012,-3.4073,-3.3992,-3.3992,-3.4005,-3.4147,-3.4158,-3.4169,-3.4066,-3.4068,-3.407,-3.4144,0,-3.3693,-3.3771,-3.3774,-3.3846,-3.3883,-3.3872,-3.3911,-3.3934,-3.3945,-3.3977,-3.3988,-3.4026,-3.4004,-3.4017,-3.4047,-3.4059,-3.4101,-3.4054,-3.4099,-3.4101,-3.4091,-3.4182,-3.4194,-3.4263,-3.4154,-3.4155,-3.4157,0,-3.3789,-3.382,-3.3895,-3.3922,-3.3938,-3.3972,-3.4007,-3.4039,-3.4066,-3.4071,-3.4095,-3.4091,-3.4136,-3.4104,-3.4166,-3.4134,-3.4153,-3.4162,-3.4164,-3.4167,-3.4131,-3.4186,-3.4285,-3.4295,-3.4172,-3.4171,-3.417,0,-3.3847,-3.3908,-3.396,-3.3975,-3.4008,-3.4032,-3.4047,-3.4072,-3.4094,-3.4125,-3.4139,-3.4174,-3.4193,-3.4221,-3.4226,-3.4203,-3.4287,-3.4256,-3.4292,-3.4292,-3.4309,-3.4307,-3.4411,-3.4324,-3.4324,-3.4324,-3.4323,0,-3.3929,-3.3975,-3.3986,-3.4018,-3.4069,-3.4073,-3.4123,-3.4136,-3.4158,-3.4192,-3.4185,-3.4217,-3.4223,-3.4256,-3.4261,-3.4311,-3.432,-3.4325,-3.4325,-3.4324,-3.4324,-3.4336,-3.433,-3.4326,-3.4326,-3.4325,-3.4325,0,-3.4001,-3.4011,-3.4067,-3.4093,-3.4101,-3.4137,-3.416,-3.419,-3.42,-3.4243,-3.4253,-3.4268,-3.4306,-3.4315,-3.4361,-3.4364,-3.4423,-3.4419,-3.4413,-3.4413,-3.4447,-3.4443,-3.456,-3.4575,-3.448,-3.4481,-3.4482,0,-3.4052,-3.4087,-3.4117,-3.4139,-3.4155,-3.4191,-3.4214,-3.4219,-3.4242,-3.4275,-3.4302,-3.434,-3.437,-3.4433,-3.4447,-3.4482,-3.4478,-3.4517,-3.4483,-3.4481,-3.4477,-3.4474,-3.4477,-3.4523,-3.4524,-3.4525,-3.4526,0,-3.414,-3.4143,-3.4176,-3.4211,-3.4238,-3.4266,-3.4292,-3.4311,-3.4319,-3.4346,-3.4386,-3.4409,-3.4456,-3.4494,-3.4529,-3.4543,-3.4536,-3.4536,-3.4546,-3.4545,-3.454,-3.4541,-3.4429,-3.4533,-3.4532,-3.4532,-3.4531,-3.4531,-3.4203,-3.4233,-3.4258,-3.4295,-3.4315,-3.434,-3.437,-3.4383,-3.4416,-3.4454,-3.4455,-3.4498,-3.4523,-3.457,-3.4587,-3.462,-3.4608,-3.4622,-3.4626,-3.4629,-3.4631,-3.4536,-3.4626,-3.4626,-3.4626,-3.4626,-3.4626,0,-3.429,-3.4306,-3.4339,-3.4376,-3.4405,-3.4396,-3.4424,-3.4449,-3.4486,-3.4511,-3.4541,-3.4586,-3.4622,-3.464,-3.4675,-3.4698,-3.4696,-3.4708,-3.4705,-3.4708,-3.4641,-3.4628,-3.4709,-3.4709,-3.4709,-3.4709,-3.4709,-3.4709,-3.4338,-3.4388,-3.4394,-3.4454,-3.447,-3.4512,-3.4528,-3.4551,-3.457,-3.4621,-3.4651,-3.4662,-3.4684,-3.4721,-3.4753,-3.4757,-3.477,-3.4784,-3.4786,-3.4722,-3.4713,-3.4705,-3.4693,-3.4787,-3.4787,-3.4851,-3.4851,-3.4852]},{"header":{"parameterUnit":"m.s-1","parameterCategory":1,"la1":30.2991,"la2":30.254,"lo1":-89.0895,"lo2":-89.0444,"dy":0.0017,"dx":0.0017,"nx":28,"ny":28,"refTime":"2024-05-11T09:00:00:Z","depth":0,"parameterNumber":3,"parameterNumberName":"V-component_of_WINDS"},"data":[0,0,0,0,0,0,0,0,0,0,0,0,0,0,0,0,0,0,0,0,0,0,0,0,0,0,0,0,0,0,0,0,0,0,0,0,0,0,0,0,0,0,0,0,0,0,0,0,0,0,0,0,0,0,0,0,0,0,5.0949,5.0949,0,5.0991,5.0992,5.0992,5.0922,5.092,5.0917,5.0915,5.0954,5.0957,5.096,0,0,0,0,0,0,0,0,0,0,0,0,0,5.0803,5.0806,5.0949,5.0949,5.095,5.0991,5.0992,5.0992,5.0922,5.0919,5.0917,5.0914,5.0953,5.0957,5.0961,0,0,0,0,0,0,0,0,0,0,0,0,0,5.0858,5.0807,5.0949,5.092,5.0918,5.0991,5.0992,5.0992,5.0923,5.0919,5.0916,5.0912,5.0952,5.0956,5.0961,5.1063,0,0,5.0976,5.0978,0,0,0,0,0,0,0,0,5.0855,5.0863,5.0924,5.0922,5.092,5.0948,5.0954,5.1016,5.0924,5.0921,5.0915,5.0911,5.0954,5.0959,5.0975,5.1065,5.1066,5.0977,5.0979,5.0982,5.0983,0,0,0,0,0,0,0,5.0851,5.0861,5.0965,5.0925,5.0922,5.0904,5.0907,5.0966,5.0957,5.0921,5.0916,5.0922,5.0953,5.097,5.0975,5.1067,5.0976,5.0981,5.0984,5.0986,5.1241,5.1245,0,0,0,0,0,0,5.0851,5.0858,5.0964,5.0967,5.0878,5.0909,5.0913,5.0942,5.0956,5.0955,5.0925,5.0919,5.0963,5.0969,5.0976,5.1094,5.0982,5.0986,5.0989,5.1237,5.1242,5.1246,0,0,0,0,0,0,5.0848,5.0861,5.0962,5.0911,5.0923,5.0916,5.0948,5.0945,5.0962,5.096,5.0957,5.0945,5.0961,5.0969,5.1042,5.1095,5.0988,5.0993,5.1233,5.1239,5.1244,5.1333,0,0,0,0,0,0,5.0845,5.0861,5.09,5.0913,5.0926,5.1029,5.0952,5.0948,5.0971,5.0963,5.0977,5.0976,5.0959,5.1035,5.1047,5.11,5.0997,5.1228,5.1236,5.1242,5.1325,5.1341,5.1355,0,0,0,0,0,5.084,5.0923,5.0903,5.0916,5.0975,5.1032,5.1039,5.1019,5.0976,5.1015,5.1013,5.0976,5.1088,5.1043,5.1056,5.1111,5.1224,5.1233,5.1242,5.1319,5.1338,5.1354,0,0,0,0,0,0,5.0915,5.0924,5.0901,5.0992,5.1012,5.102,5.1068,5.104,5.1072,5.1062,5.1035,5.1038,5.1116,5.1121,5.1071,5.1209,5.1149,5.116,5.1203,5.1221,5.1236,5.1231,5.1001,0,0,0,0,0,5.0943,5.099,5.0994,5.1073,5.1085,5.1075,5.1099,5.1082,5.1101,5.1109,5.1112,5.1131,5.117,5.1196,5.1233,5.1327,5.1328,5.1371,5.1386,5.1398,5.1407,5.1456,5.1474,5.1275,5.1275,5.1275,0,0,5.0999,5.101,5.1041,5.1089,5.1102,5.115,5.1083,5.1136,5.117,5.1116,5.1185,5.1189,5.1207,5.1291,5.1328,5.1297,5.1463,5.1409,5.1419,5.1421,5.1467,5.1486,5.1502,5.1281,5.128,5.1279,0,0,5.1126,5.114,5.1206,5.1222,5.1244,5.1237,5.1254,5.1267,5.1267,5.1336,5.1296,5.1337,5.1405,5.142,5.1437,5.1571,5.1536,5.1583,5.1659,5.1707,5.1722,5.1736,5.1781,5.1798,5.1593,5.1594,5.1594,0,5.1192,5.1264,5.1244,5.13,5.1322,5.1277,5.1343,5.1359,5.1391,5.1406,5.1372,5.1458,5.1467,5.1553,5.1586,5.1602,5.1618,5.158,5.1722,5.1736,5.1748,5.1791,5.1808,5.1599,5.1598,5.1598,5.1597,0,5.1344,5.1394,5.1445,5.1479,5.1506,5.1568,5.1555,5.1585,5.1567,5.1563,5.1633,5.1644,5.1681,5.1701,5.1682,5.1784,5.1764,5.1727,5.1665,5.1773,5.1812,5.1829,5.1607,5.1605,5.1603,5.1602,0,0,5.1516,5.154,5.1558,5.1573,5.1595,5.1632,5.1691,5.1729,5.1754,5.1779,5.1826,5.1886,5.1852,5.1871,5.1854,5.1896,5.1999,5.1853,5.1853,5.1878,5.2109,5.2135,5.2154,5.1978,5.1981,5.1984,5.2106,0,5.1641,5.1743,5.1727,5.1825,5.187,5.183,5.1881,5.1899,5.1898,5.1935,5.1933,5.1975,5.1928,5.1939,5.1979,5.1978,5.2044,5.1969,5.2019,5.2021,5.2012,5.2175,5.2203,5.2318,5.2122,5.2125,5.2127,0,5.1799,5.183,5.1933,5.1948,5.1966,5.2012,5.2045,5.2082,5.2101,5.2097,5.212,5.2095,5.2152,5.2092,5.2169,5.2118,5.2138,5.2141,5.2145,5.2146,5.2078,5.2178,5.2354,5.2371,5.2152,5.215,5.2148,0,5.1911,5.198,5.205,5.2064,5.2083,5.2116,5.2125,5.2141,5.2165,5.2194,5.2208,5.2244,5.2262,5.2289,5.2274,5.2232,5.2353,5.2292,5.2349,5.235,5.2374,5.2372,5.2553,5.2392,5.2392,5.2392,5.2391,0,5.205,5.2114,5.21,5.2143,5.2213,5.2195,5.2264,5.2268,5.2283,5.2325,5.2293,5.2332,5.2312,5.2349,5.2338,5.2403,5.2412,5.2409,5.2404,5.241,5.241,5.242,5.2411,5.2396,5.2395,5.2394,5.2393,0,5.2186,5.218,5.2253,5.2266,5.2271,5.2322,5.2332,5.2371,5.2369,5.2422,5.2433,5.2428,5.2471,5.246,5.2507,5.2499,5.258,5.2567,5.2573,5.2569,5.2626,5.262,5.2817,5.2841,5.2668,5.2669,5.2671,0,5.2273,5.2322,5.234,5.2367,5.2379,5.2422,5.2446,5.243,5.2456,5.2483,5.2518,5.2559,5.259,5.266,5.266,5.2695,5.2681,5.2748,5.2685,5.2689,5.2679,5.2675,5.2679,5.2759,5.2761,5.2763,5.2764,0,5.2428,5.2423,5.246,5.2497,5.2527,5.2554,5.2579,5.2602,5.2587,5.2618,5.2662,5.2687,5.2735,5.2775,5.2807,5.2815,5.2786,5.2784,5.2799,5.2803,5.2804,5.2802,5.2604,5.2779,5.2777,5.2776,5.2775,5.2775,5.2541,5.2582,5.2601,5.2643,5.266,5.2684,5.2721,5.2724,5.2761,5.2799,5.2788,5.2838,5.2855,5.2896,5.2909,5.2946,5.2921,5.2943,5.2947,5.2952,5.2958,5.2801,5.2953,5.2952,5.2952,5.2951,5.2951,0,5.2692,5.2703,5.2742,5.2778,5.2811,5.2784,5.2809,5.2838,5.2883,5.2903,5.2935,5.2985,5.3024,5.3027,5.3063,5.3093,5.3081,5.3103,5.3099,5.3101,5.2981,5.2963,5.3112,5.3112,5.3112,5.3112,5.3112,5.3112,5.2774,5.2841,5.2839,5.2914,5.2924,5.2973,5.299,5.3011,5.3027,5.3085,5.3117,5.312,5.3133,5.317,5.3204,5.3204,5.3217,5.3244,5.3238,5.3125,5.3109,5.3094,5.3077,5.3248,5.3248,5.3355,5.3356,5.3357]}]]